Regional Weather Roundup
Issued by NWS

Home | Current Version | Previous Version | Text Only | Print | Product List | Glossary Off
Versions: 1 2 3 4 5 6 7 8 9 10 11 12 13 14 15 16 17 18 19 20 21 22 23 24 25 26 27 28 29 30 31 32 33 34 35 36 37 38 39 40 41 42 43 44 45 46 47 48 49 50

000
ASUS43 KLOT 280404
RWRIL

ILLINOIS REGIONAL WEATHER ROUNDUP
NATIONAL WEATHER SERVICE CHICAGO/ROMEOVILLE IL
1100 PM CDT THU APR 27 2017

NOTE: "FAIR" INDICATES FEW OR NO CLOUDS BELOW 12,000 FEET WITH NO
SIGNIFICANT WEATHER AND/OR OBSTRUCTIONS TO VISIBILITY.

* THESE STATIONS ARE NOT UNDER NWS QUALITY CONTROL. THEY ALSO MAY NOT
  REPORT WEATHER SUCH AS PRECIPITATION OR FOG.

ILZ001-002-007-009-015-016-024-280500-
NORTHWEST ILLINOIS

CITY           SKY/WX    TMP DP  RH WIND       PRES   REMARKS
MOLINE         PTCLDY    39  36  89 CALM      29.85R
STERLING*      CLEAR     37  36  96 CALM      29.86R
SAVANNA*       CLEAR     41  33  73 W8        29.85R
$$

ILZ003-004-008-010-011-017-018-280500-
NORTH CENTRAL ILLINOIS

CITY           SKY/WX    TMP DP  RH WIND       PRES   REMARKS
ROCKFORD       CLOUDY    43  35  73 SW8       29.86R
FREEPORT*      CLEAR     38  33  83 SW5       29.86R WCI  34
ROCHELLE*      PTCLDY    38  37  94 SW7       29.85S WCI  33
DE KALB*       MOCLDY    41  36  84 SW8       29.85R
PERU*          CLEAR     41  38  88 S3        29.87R
$$

ILZ005-006-012>014-019>023-280500-
NORTHEAST ILLINOIS

CITY           SKY/WX    TMP DP  RH WIND       PRES   REMARKS
CHICAGO-OHARE  PTCLDY    43  35  73 SW9       29.85R
CHICAGO-MIDWAY PTCLDY    45  37  73 SW7       29.86R
AURORA         CLEAR     40  36  86 S5        29.86R
LANSING*       PTCLDY    42  40  91 S6        29.88R
JOLIET*        CLEAR     41  39  92 CALM      29.87R
WAUKEGAN       CLOUDY    43  35  73 SW13G18   29.82R
DUPAGE AIRPORT CLEAR     40  37  89 SW7       29.84R
KANKAKEE*      PTCLDY    45  39  79 CALM      29.89S
WHEELING       CLEAR     43  36  76 SW8       29.85R
MORRIS*        MOCLDY    41  38  88 CALM      29.86R
NORTHERLY ISL    N/A     46  35  65 S5          N/A
$$

LMZ740>746-280500-
SOUTHERN LAKE MICHIGAN

STATION/POSITION SKY/WX   TEMP    WIND        PRES    VSBY  WAVE
                          AIR SEA DIR/SP/G                  HT/PER
                          (F)     (DEG/KT/KT) (MB)    (MI)  (FT/S)
SOUTHERN BUOY              43 41  270/ 14/ 16 1009.2          3/ 5
HARRISON CRIB              47     230/ 14/ 17   N/A
BURNHAM HARBOR             46     260/  6/ 12   N/A
CALUMET HARBOR             46     200/  8/ 10 1010.7R
BURNS HARBOR               48     230/  9/ 11 1012.2R
MICHIGAN CITY              47     230/ 19/ 21   N/A
MICHIGAN CITY 6N           47 47                N/A           3/ 4
ST. JOSEPH                 46 48  250/ 17/ 21 1011.9R         4/ 4
$$

ILZ025>027-034>036-040-047-049-050-058-095>099-280500-
WEST-CENTRAL ILLINOIS

CITY           SKY/WX    TMP DP  RH WIND       PRES   REMARKS
QUINCY         CLOUDY    52  45  77 S6        29.86R
GALESBURG*     MOCLDY    44  41  90 CALM      29.85R
MACOMB*        CLOUDY    48  44  87 S7        29.88R
JACKSONVILLE*  PTCLDY    49  46  90 CALM      29.88R
PITTSFIELD*    PTCLDY    50  47  87 CALM      29.88F
$$

ILZ028>032-037-038-041>044-048-051>054-059>061-280500-
CENTRAL ILLINOIS

CITY           SKY/WX    TMP DP  RH WIND       PRES   REMARKS
PONTIAC        CLOUDY    46  45  97 SE3       29.87F
BLOOMINGTON    CLOUDY    47  44  90 S5        29.88R
DECATUR        CLOUDY    48  46  93 S5        29.89R
PEORIA         MOCLDY    47  43  86 S7        29.87R
LACON*         CLEAR     41  40  96 CALM      29.85R
LINCOLN*       CLOUDY    49  48  93 CALM      29.89R
SPRINGFIELD    CLOUDY    51  48  89 CALM      29.89R
TAYLORVILLE    CLOUDY    48  46  91 SE5       29.90R
$$

ILZ033-039-045-046-055>057-062-063-280500-
EAST-CENTRAL ILLINOIS

CITY           SKY/WX    TMP DP  RH WIND       PRES   REMARKS
CHAMPAIGN      PTCLDY    48  44  86 SE5       29.88R
RANTOUL*       CLOUDY    50  47  88 S3        29.88S
MATTOON        PTCLDY    45  44  97 SE5       29.89R
PARIS*         PTCLDY    46  46  97 CALM      29.91R
$$

ILZ079-100>102-280500-
SOUTHWEST ILLINOIS

CITY           SKY/WX    TMP DP  RH WIND       PRES   REMARKS
ALTON          CLOUDY    52  48  86 E3        29.88S
BELLEVILLE     PTCLDY    54  53  94 E5        29.86R
CAHOKIA*       CLOUDY    56  49  77 SE6       29.87R
SPARTA*        MOCLDY    54  48  82 SE6       29.89R
$$

ILZ064>066-069>071-074>076-080>082-084>086-088>090-092>094-280500-
SOUTH-CENTRAL ILLINOIS

CITY           SKY/WX    TMP DP  RH WIND       PRES   REMARKS
CARBONDALE     CLOUDY    53  50  89 CALM      29.88R
CAIRO*         CLOUDY    54  53  94 CALM      29.87S
EFFINGHAM*     PTCLDY    46  46 100 CALM      29.92R FOG
MARION         CLOUDY    54  52  94 CALM      29.90S
MT. VERNON     CLOUDY    48  47  96 CALM      29.90R
CENTRALIA*     CLOUDY    52  49  87 CALM      29.89R
SALEM*         PTCLDY    52  47  84 CALM      29.90R
METROPOLIS*    MOCLDY    52  51  96 CALM      29.88F
$$

ILZ067-068-072-073-078-083-087-091-280500-
SOUTHEAST ILLINOIS

CITY           SKY/WX    TMP DP  RH WIND       PRES   REMARKS
LAWRENCEVILLE  PTCLDY    47  47 100 E3        29.91R
FLORA*         PTCLDY    50  47  91 CALM      29.90R
FAIRFIELD*     PTCLDY    48  48  99 CALM      29.90R
HARRISBURG*    MOCLDY    49  49  98 CALM      29.91R
ROBINSON*      CLOUDY    45  44  97 CALM      29.92R
CARMI*         CLEAR     47  47  99 CALM      29.90R
$$

ABBREVIATIONS USED IN REMARKS
   TC - TEMPERATURE IN CELSIUS
  WCI - WIND CHILL INDEX
   HX - HEAT INDEX
  VSB - VISIBILITY
$$





USA.gov is the U.S. government's official web portal to all federal, state and local government web resources and services.